Regional Weather Roundup
Issued by NWS

Home | Current Version | Previous Version | Graphics & Text | Print | Product List | Glossary On
Versions: 1 2 3 4 5 6 7 8 9 10 11 12 13 14 15 16 17 18 19 20 21 22 23 24 25 26 27 28 29 30 31 32 33 34 35 36 37 38 39 40 41 42 43 44 45 46 47 48 49 50
000
ASUS43 KLOT 231103
RWRIL

ILLINOIS REGIONAL WEATHER ROUNDUP
NATIONAL WEATHER SERVICE CHICAGO/ROMEOVILLE IL
600 AM CDT SAT JUL 23 2016

NOTE: "FAIR" INDICATES FEW OR NO CLOUDS BELOW 12,000 FEET WITH NO
SIGNIFICANT WEATHER AND/OR OBSTRUCTIONS TO VISIBILITY.

* THESE STATIONS ARE NOT UNDER NWS QUALITY CONTROL. THEY ALSO MAY NOT
  REPORT WEATHER SUCH AS PRECIPITATION OR FOG.

ILZ001-002-007-009-015-016-024-231200-
NORTHWEST ILLINOIS

CITY           SKY/WX    TMP DP  RH WIND       PRES   REMARKS
MOLINE         CLEAR     75  73  93 E5        29.96F
STERLING*      CLOUDY    76  75  97 CALM      29.98F
SAVANNA*       CLEAR     74  73  99 CALM      29.98S FOG
$$

ILZ003-004-008-010-011-017-018-231200-
NORTH CENTRAL ILLINOIS

CITY           SKY/WX    TMP DP  RH WIND       PRES   REMARKS
ROCKFORD       PTCLDY    75  72  90 CALM      30.01R FOG
FREEPORT*      CLOUDY    72  71  98 CALM      30.01S
ROCHELLE*      CLOUDY    72  72 100 CALM      30.01R FOG
DE KALB*       FOG       73  72  98 CALM      30.02R VSB 1/4
$$

ILZ005-006-012>014-019>023-231200-
NORTHEAST ILLINOIS

CITY           SKY/WX    TMP DP  RH WIND       PRES   REMARKS
CHICAGO-OHARE  MOCLDY    78  75  90 W5        29.98R HX  81
CHICAGO-MIDWAY PTCLDY    80  75  84 W3        29.98R HX  85
AURORA         FOG       73  71  93 CALM      30.00R VSB 1/4
LANSING*       CLOUDY    75  74  96 SW3       29.99R
WAUKEGAN       PTCLDY    76  75  97 W5        29.99R FOG
DUPAGE AIRPORT CLEAR     75  73  93 CALM      29.99R
WHEELING       PTCLDY    79  75  87 CALM      29.99S HX  83
MORRIS*        CLEAR     73  72  96 CALM      29.99R FOG
NORTHERLY ISL    N/A     79  73  82 SW6         N/A  HX  82
$$

LMZ740>746-231200-
SOUTHERN LAKE MICHIGAN

STATION/POSITION SKY/WX   TEMP    WIND        PRES    VSBY  WAVE
                          AIR SEA DIR/SP/G                  HT/PER
                          (F)     (DEG/KT/KT) (MB)    (MI)  (FT/S)
SOUTHERN BUOY              75 73  180/  4/  4 1014.1          0
WILMETTE HARBOR            75 69  250/  4/  6   N/A           0
HARRISON CRIB              82     270/  6/  7   N/A
BURNHAM HARBOR             80     260/  5/  7   N/A
CALUMET HARBOR             79     240/  2/  5 1014.6F
BURNS HARBOR               78     200/  3/  9 1015.2F
MICHIGAN CITY              77     180/  5/  6   N/A
MICHIGAN CITY 6N           76 74  220/  4/  6   N/A           1
ST. JOSEPH                 76 75  160/  4/  4 1014.8F         0
$$

ILZ025>027-034>036-040-047-049-050-058-095>099-231200-
WEST-CENTRAL ILLINOIS

CITY           SKY/WX    TMP DP  RH WIND       PRES   REMARKS
QUINCY         CLEAR     75  72  90 S5        29.96F
GALESBURG*     FOG       73  73  99 SE3       29.99S VSB 3/4
MACOMB*        FOG       71  71 100 SE3       30.00S VSB 1/4
JACKSONVILLE*  CLEAR     73  72  96 SE3       29.98S
PITTSFIELD*    CLEAR     74  73  99 S3        29.99S
$$

ILZ028>032-037-038-041>044-048-051>054-059>061-231200-
CENTRAL ILLINOIS

CITY           SKY/WX    TMP DP  RH WIND       PRES   REMARKS
PONTIAC        CLEAR     73  73 100 CALM      30.00S FOG
BLOOMINGTON    CLEAR     72  70  93 VRB3      30.01S
DECATUR        CLEAR     72  69  90 SE3       30.00S
PEORIA         CLEAR     75  74  96 CALM      29.99R
LACON*         CLOUDY    74  73  95 CALM      29.99R
LINCOLN*       CLEAR     72  72 100 CALM      29.99S
SPRINGFIELD    CLEAR     73  72  96 SE3       29.99S
TAYLORVILLE    CLEAR     71  71 100 CALM      30.00S
$$

ILZ033-039-045-046-055>057-062-063-231200-
EAST-CENTRAL ILLINOIS

CITY           SKY/WX    TMP DP  RH WIND       PRES   REMARKS
CHAMPAIGN      CLEAR     71  69  93 MISG      30.00F FOG
MATTOON        CLEAR     72  69  90 CALM      30.00R
PARIS*         CLEAR     68  68 100 CALM      30.02S FOG
$$

ILZ079-100>102-231200-
SOUTHWEST ILLINOIS

CITY           SKY/WX    TMP DP  RH WIND       PRES   REMARKS
ALTON          FOG       70  69  98 CALM      29.99S VSB 1
BELLEVILLE     PTCLDY    73  73 100 S1        29.97F
CAHOKIA*       PTCLDY    74  71  91 CALM      29.98S
SPARTA*        PTCLDY    72  72  99 CALM      30.01R
$$

ILZ064>066-069>071-074>076-080>082-084>086-088>090-092>094-231200-
SOUTH-CENTRAL ILLINOIS

CITY           SKY/WX    TMP DP  RH WIND       PRES   REMARKS
CARBONDALE     FOG       72  70  93 CALM      29.99S VSB 1/4
EFFINGHAM*     CLEAR     70  70 100 CALM      30.01S
MARION         FOG       75  75 100 CALM      30.01R VSB 1/4
MT. VERNON     CLOUDY    70  66  88 CALM      30.00S
CENTRALIA*     MOCLDY    72  72 100 SE3       29.98F FOG
SALEM*         FOG       73  71  95 CALM      29.99F VSB 1/2
METROPOLIS*    FOG       72  72  99 CALM      30.00S VSB 1/4
$$

ILZ067-068-072-073-078-083-087-091-231200-
SOUTHEAST ILLINOIS

CITY           SKY/WX    TMP DP  RH WIND       PRES   REMARKS
LAWRENCEVILLE  FOG       73  73 100 NW3       30.00S VSB 1/4
FLORA*         FOG       72  71  97 CALM      29.99F VSB 1/4
FAIRFIELD*     PTCLDY    73  73 100 CALM      29.99S FOG
HARRISBURG*    FOG       76  76 100 CALM      30.00R VSB<1/4
ROBINSON*      FOG       68  68 100 CALM      30.02R VSB 1/4
CARMI*         FOG       74  74 100 CALM      29.99S VSB 1/4
$$

ABBREVIATIONS USED IN REMARKS
   TC - TEMPERATURE IN CELSIUS
  WCI - WIND CHILL INDEX
   HX - HEAT INDEX
  VSB - VISIBILITY
$$




USA.gov is the U.S. government's official web portal to all federal, state and local government web resources and services.